Weather History for KLOT - May, 2014

Change the Weather History Date:

Thursday, May 1, 2014

  Actual Average Record
Temperature  
Mean Temperature 45 °F 56 °F  
Max Temperature 49 °F 67 °F 88 °F (1992)
Min Temperature 41 °F 45 °F 32 °F (2005)
Degree Days  
Heating Degree Days 20 10  
Month to date heating degree days 20 10  
Since 1 July heating degree days 7138 6004  
Cooling Degree Days 0 0  
Month to date cooling degree days 0 0  
Year to date cooling degree days 0 5  
Moisture  
Dew Point 40 °F    
Average Humidity 85    
Maximum Humidity 99    
Minimum Humidity 72    
Precipitation  
Precipitation 0.11 in 0.14 in 0.88 in (2003)
Month to date precipitation 0.11 0.14  
Year to date precipitation 10.89 10.58  
Snow  
Snow 0.00 in 0.00 in - ()
Month to date snowfall 0.0 0.0  
Since 1 July snowfall 76.7 32.3  
Snow Depth 0.00 in    
Sea Level Pressure  
Sea Level Pressure 29.76 in    
Wind  
Wind Speed 13 mph (WSW)    
Max Wind Speed 25 mph    
Max Gust Speed 31 mph    
Visibility 9 miles    
Events Rain    
T = Trace of Precipitation, MM = Missing Value Source: NWS Daily Summary

Daily Weather History Graph

Daily Weather History Graph

Search for Another Location

Airport or City:

Trip Planner

Search our weather history database for the weather conditions in past years. The results will help you decide how hot, cold, wet, or windy it might be!

Date:

Astronomy

May. 01, 2014 Rise Set
Actual Time 5:49 AM CDT 7:50 PM CDT
Civil Twilight 5:19 AM CDT 8:20 PM CDT
Nautical Twilight 4:42 AM CDT 8:57 PM CDT
Astronomical Twilight 4:01 AM CDT 9:38 PM CDT
Moon 7:35 AM CDT (5/1) 10:24 PM CDT (5/1)
Length of Visible Light 15h 01m
Length of Day
14h 01m
Waxing Crescent, 7% of the Moon is Illuminated
May 1
Waxing Crescent
May 6
First Quarter
May 14
Full
May 21
Last Quarter
May 28
New

Hourly Weather History & Observations

Time (CDT) Temp. Windchill Dew Point Humidity Pressure Visibility Wind Dir Wind Speed Gust Speed Precip Events Conditions
12:10 AM 44.1 °F 39.5 °F 39.2 °F 83% 29.77 in 10.0 mi WSW 8.1 mph 13.8 mph N/A   Overcast
12:30 AM 44.6 °F 38.8 °F 38.1 °F 78% 29.76 in 10.0 mi SW 11.5 mph - N/A   Overcast
12:50 AM 44.1 °F 37.7 °F 38.3 °F 80% 29.76 in 10.0 mi WSW 12.7 mph - N/A   Overcast
1:10 AM 44.1 °F 37.4 °F 38.3 °F 80% 29.76 in 10.0 mi WSW 13.8 mph - N/A   Overcast
1:30 AM 43.5 °F 37.5 °F 38.5 °F 82% 29.76 in 10.0 mi WSW 11.5 mph - N/A   Overcast
1:50 AM 43.2 °F 36.6 °F 38.7 °F 84% 29.75 in 10.0 mi WSW 12.7 mph - N/A   Overcast
2:10 AM 43.2 °F 37.9 °F 38.7 °F 84% 29.74 in 10.0 mi SW 9.2 mph - N/A   Overcast
2:30 AM 43.0 °F 36.8 °F 37.6 °F 81% 29.74 in 10.0 mi WSW 11.5 mph - N/A   Overcast
2:50 AM 42.3 °F 36.8 °F 36.9 °F 81% 29.74 in 10.0 mi WSW 9.2 mph - N/A Rain Light Rain
3:10 AM 41.5 °F 34.6 °F 37.8 °F 86% 29.73 in 10.0 mi SW 12.7 mph - N/A Rain Light Rain
3:30 AM 41.4 °F 34.3 °F 39.0 °F 91% 29.72 in 10.0 mi SW 12.7 mph - N/A Rain Light Rain
3:50 AM 41.9 °F 35.4 °F 38.5 °F 88% 29.72 in 10.0 mi WSW 11.5 mph - N/A   Overcast
4:10 AM 41.9 °F 35.0 °F 38.5 °F 88% 29.71 in 10.0 mi SW 12.7 mph 18.4 mph N/A   Overcast
4:30 AM 41.9 °F 34.6 °F 38.3 °F 87% 29.71 in 10.0 mi SW 13.8 mph - N/A   Overcast
4:50 AM 41.9 °F 34.6 °F 37.6 °F 85% 29.71 in 10.0 mi WSW 13.8 mph - N/A   Overcast
5:10 AM 41.9 °F 35.4 °F 37.2 °F 83% 29.71 in 10.0 mi WSW 11.5 mph 17.3 mph N/A   Overcast
5:30 AM 41.9 °F 35.0 °F 37.4 °F 84% 29.71 in 10.0 mi SW 12.7 mph 18.4 mph N/A   Overcast
5:50 AM 41.9 °F 34.3 °F 37.6 °F 85% 29.71 in 10.0 mi WSW 15.0 mph 20.7 mph N/A   Overcast
6:10 AM 42.1 °F 34.9 °F 37.4 °F 83% 29.71 in 10.0 mi WSW 13.8 mph 21.9 mph N/A   Overcast
6:30 AM 42.1 °F 35.2 °F 37.4 °F 83% 29.71 in 10.0 mi SW 12.7 mph 19.6 mph N/A   Overcast
6:50 AM 42.3 °F 35.1 °F 37.6 °F 83% 29.71 in 10.0 mi SW 13.8 mph - N/A   Overcast
7:10 AM 42.8 °F 35.4 °F 37.8 °F 82% 29.71 in 10.0 mi SW 15.0 mph 20.7 mph N/A   Overcast
7:30 AM 42.8 °F 34.8 °F 37.9 °F 83% 29.71 in 10.0 mi SW 17.3 mph 26.5 mph N/A   Overcast
7:50 AM 42.6 °F 35.9 °F 38.5 °F 85% 29.71 in 7.0 mi WSW 12.7 mph 18.4 mph N/A Rain Rain
8:10 AM 42.8 °F 35.8 °F 39.2 °F 87% 29.71 in 7.0 mi SW 13.8 mph 24.2 mph N/A   Drizzle
8:30 AM 42.8 °F 35.8 °F 40.5 °F 91% 29.72 in 7.0 mi WSW 13.8 mph 21.9 mph N/A   Drizzle
8:50 AM 43.0 °F 35.7 °F 41.0 °F 93% 29.72 in 7.0 mi SW 15.0 mph 23.0 mph N/A   Drizzle
9:10 AM 43.0 °F 35.1 °F 41.4 °F 94% 29.72 in 5.0 mi SW 17.3 mph 21.9 mph N/A   Drizzle
9:30 AM 43.5 °F 35.5 °F 41.4 °F 92% 29.72 in 10.0 mi WSW 18.4 mph 23.0 mph N/A   Drizzle
9:50 AM 43.9 °F 36.5 °F 41.9 °F 93% 29.72 in 10.0 mi WSW 16.1 mph 23.0 mph N/A   Drizzle
10:10 AM 44.6 °F 36.9 °F 42.1 °F 91% 29.73 in 10.0 mi West 18.4 mph 24.2 mph N/A   Overcast
10:30 AM 45.7 °F 38.0 °F 41.7 °F 86% 29.73 in 10.0 mi WSW 19.6 mph 26.5 mph N/A   Overcast
10:50 AM 46.4 °F 38.5 °F 41.5 °F 83% 29.73 in 10.0 mi WSW 21.9 mph 27.6 mph N/A   Overcast
11:10 AM 46.0 °F 38.5 °F 40.1 °F 80% 29.73 in 10.0 mi WSW 19.6 mph 28.8 mph N/A   Overcast
11:30 AM 45.9 °F 38.3 °F 40.6 °F 82% 29.74 in 10.0 mi West 19.6 mph 25.3 mph N/A   Overcast
11:50 AM 45.5 °F 36.7 °F 40.5 °F 83% 29.74 in 4.0 mi West 25.3 mph 29.9 mph N/A   Light Drizzle
12:10 PM 47.1 °F - 41.9 °F 82% 29.74 in 10.0 mi West 19.6 mph 23.0 mph N/A   Overcast
12:30 PM 47.5 °F - 41.4 °F 79% 29.74 in 10.0 mi West 19.6 mph 26.5 mph N/A   Overcast
12:50 PM 48.2 °F - 40.5 °F 75% 29.74 in 10.0 mi West 20.7 mph 31.1 mph N/A   Overcast
1:10 PM 48.2 °F - 39.6 °F 72% 29.74 in 10.0 mi West 20.7 mph 31.1 mph N/A   Overcast
1:30 PM 47.8 °F - 40.3 °F 75% 29.75 in 10.0 mi West 20.7 mph 29.9 mph N/A   Overcast
1:50 PM 46.4 °F 39.0 °F 39.4 °F 77% 29.76 in 10.0 mi WSW 19.6 mph 26.5 mph N/A   Overcast
2:10 PM 46.9 °F - 39.6 °F 76% 29.76 in 10.0 mi West 18.4 mph 23.0 mph N/A   Overcast
2:30 PM 47.5 °F - 39.2 °F 73% 29.76 in 10.0 mi West 17.3 mph 25.3 mph N/A   Overcast
2:50 PM 46.8 °F - 40.1 °F 78% 29.76 in 7.0 mi WSW 19.6 mph 24.2 mph N/A   Drizzle
3:10 PM 46.4 °F 40.1 °F 41.5 °F 83% 29.77 in 4.0 mi West 15.0 mph - N/A   Drizzle
3:30 PM 46.4 °F 41.5 °F 42.6 °F 87% 29.77 in 10.0 mi WSW 10.4 mph - 0.01 in   Overcast
3:50 PM 46.4 °F 40.7 °F 41.0 °F 81% 29.77 in 10.0 mi West 12.7 mph - N/A   Light Drizzle
4:10 PM 46.6 °F - 41.4 °F 82% 29.77 in 10.0 mi West 12.7 mph - N/A   Overcast
4:30 PM 46.8 °F - 41.5 °F 82% 29.78 in 7.0 mi West 19.6 mph 24.2 mph N/A   Drizzle
4:50 PM 46.6 °F - 41.7 °F 83% 29.78 in 10.0 mi West 12.7 mph - N/A   Overcast
5:10 PM 46.9 °F - 41.2 °F 80% 29.78 in 10.0 mi West 11.5 mph 17.3 mph N/A   Overcast
5:30 PM 47.1 °F - 41.2 °F 80% 29.78 in 10.0 mi West 15.0 mph 19.6 mph N/A   Overcast
5:50 PM 47.3 °F - 41.2 °F 79% 29.79 in 10.0 mi West 12.7 mph - N/A   Overcast
6:10 PM 47.3 °F - 41.2 °F 79% 29.79 in 10.0 mi West 13.8 mph - N/A   Overcast
6:30 PM 46.9 °F - 41.4 °F 81% 29.79 in 10.0 mi West 13.8 mph 20.7 mph N/A   Overcast
6:50 PM 47.3 °F - 41.4 °F 80% 29.79 in 10.0 mi West 11.5 mph - N/A   Overcast
7:10 PM 47.3 °F - 41.0 °F 79% 29.80 in 10.0 mi West 15.0 mph 19.6 mph N/A   Overcast
7:30 PM 46.9 °F - 41.0 °F 80% 29.81 in 10.0 mi West 12.7 mph - N/A   Overcast
7:50 PM 46.8 °F - 41.4 °F 81% 29.81 in 10.0 mi West 10.4 mph - N/A   Overcast
8:10 PM 46.6 °F - 41.9 °F 84% 29.81 in 10.0 mi West 9.2 mph - N/A Rain Rain
8:30 PM 46.0 °F 39.9 °F 42.1 °F 86% 29.81 in 7.0 mi WSW 13.8 mph 17.3 mph N/A Rain Light Rain
8:50 PM 45.5 °F 39.9 °F 43.7 °F 93% 29.82 in 5.0 mi West 11.5 mph - N/A Rain Rain
9:10 PM 45.1 °F 40.8 °F 44.2 °F 97% 29.82 in 7.0 mi West 8.1 mph - N/A Rain Rain
9:30 PM 45.1 °F 39.5 °F 44.6 °F 98% 29.83 in 5.0 mi WSW 11.5 mph - 0.01 in Rain Rain
9:50 PM 45.0 °F 40.6 °F 44.6 °F 99% 29.83 in 4.0 mi WSW 8.1 mph - 0.01 in Rain Rain
10:10 PM 45.0 °F 40.1 °F 44.6 °F 99% 29.83 in 5.0 mi WSW 9.2 mph - N/A   Drizzle
10:30 PM 45.0 °F 40.1 °F 44.6 °F 99% 29.83 in 4.0 mi WSW 9.2 mph - N/A   Drizzle
10:50 PM 45.5 °F 40.3 °F 44.6 °F 97% 29.83 in 7.0 mi West 10.4 mph - N/A   Overcast
11:10 PM 45.7 °F 39.8 °F 43.9 °F 93% 29.83 in 10.0 mi West 12.7 mph - N/A   Overcast
11:30 PM 45.5 °F 40.3 °F 44.2 °F 95% 29.83 in 5.0 mi West 10.4 mph - N/A   Overcast
11:50 PM 45.7 °F 39.8 °F 43.9 °F 93% 29.83 in 10.0 mi West 12.7 mph - N/A   Overcast